TIANWANG 1B (TW-1B)
1 40927U 15051C   19232.49976507  .00006638  00000-0  10014-3 0  9990
2 40927  97.1334 277.8600 0009490 140.7651 324.9407 15.55048419219774
TIANWANG 1A (TW-1A)
1 40928U 15051D   19232.49270291  .00001543  00000-0  39295-4 0  9991
2 40928  97.1417 262.4040 0010590 196.0311 297.3974 15.41031451218847
LAPAN A2
1 40931U 15052B   19230.86619213 +.00000622 +00000-0 -24761-5 0  9997
2 40931 006.0016 340.4084 0013761 302.9710 339.0384 14.76611187210314
LQSAT
1 40958U 15057A   19232.19155173 -.00000005  00000-0  69051-5 0  9995
2 40958  97.8945 299.6867 0019101  44.3033 315.9700 14.73086310208004
CHUBUSAT 2
1 41338U 16012B   19232.03733563  .00000221  00000-0  10469-4 0  9995
2 41338  31.0032 108.5508 0013725 359.8935   0.1696 15.00167515192282
CHUBUSAT 3
1 41339U 16012C   19231.99955582  .00000183  00000-0  74790-5 0  9992
2 41339  31.0117 106.8050 0013612   7.0865 352.9968 15.00341561192273
OUFTI-1
1 41458U 16025C   19231.78492923  .00001341  00000-0  71536-4 0  9991
2 41458  98.1021 321.7884 0167190 147.9260 213.2273 15.05928175181914
E-STAR-2
1 41459U 16025D   19232.21501209  .00000552  00000-0  32277-4 0  9991
2 41459  98.1021 321.8676 0168504 147.8670 213.2990 15.05550231181953
AAUSAT 4
1 41460U 16025E   19232.24494641  .00001925  00000-0  99305-4 0  9997
2 41460  98.0994 323.2994 0158188 140.0207 221.2757 15.07490325182095
NUSAT 1
1 41557U 16033B   19232.54933199  .00000765  00000-0  31294-4 0  9996
2 41557  97.4173 319.6855 0015460  77.8737 282.4233 15.27311043179689
BEESAT 4
1 41619U 16040W   19231.85917047 +.00000777 +00000-0 +35709-4 0  9998
2 41619 097.3629 292.9128 0011968 157.2385 202.9384 15.23228880163320
PRATHAM
1 41783U 16059A   19231.63233223 +.00000020 +00000-0 +13207-4 0  9993
2 41783 098.0626 289.8312 0033462 186.9495 173.1247 14.63004358154604
ALSAT 1N
1 41789U 16059G   19232.52485572  .00000040  00000-0  16561-4 0  9992
2 41789  98.0656 292.8358 0028532 173.1993 186.9606 14.64255813154842
NAYIF 1
1 42017U 17008BX  19231.68098589 +.00000831 +00000-0 +35485-4 0  9990
2 42017 097.3991 298.1266 0004989 324.0303 036.0599 15.25640423139370
MAX VALIER SAT
1 42778U 17036P   19231.72161448  .00000504  00000-0  24970-4 0  9999
2 42778  97.3495 288.0072 0012652  14.9549 345.2059 15.22088246119672
